Park Rapids, MN

1:25 AM CDT on April 27, 2017 (GMT -0500)
Park Rapids Municipal

Weather History for KPKD - December, 2012

Change the Weather History Date:

Wednesday, December 26, 2012

  Actual Average Record
Temperature  
Mean Temperature 2 °F -  
Max Temperature 10 °F 15 °F 46 °F (2011)
Min Temperature -5 °F -3 °F -34 °F (1990)
Degree Days  
Heating Degree Days 62    
Moisture  
Dew Point -5 °F    
Average Humidity 78    
Maximum Humidity 87    
Minimum Humidity 70    
Precipitation  
Precipitation 0.00 in - - ()
Sea Level Pressure  
Sea Level Pressure 30.37 in    
Wind  
Wind Speed 1 mph (ESE)    
Max Wind Speed 4 mph    
Max Gust Speed -    
Visibility 8 miles    
Events Snow    
Averages and records for this station are not official NWS values.
T = Trace of Precipitation, MM = Missing Value Source: NWS Daily Summary

Daily Weather History Graph

Daily Weather History Graph

Search for Another Location

Airport or City:

Trip Planner

Search our weather history database for the weather conditions in past years. The results will help you decide how hot, cold, wet, or windy it might be!

Date:

Astronomy

Dec. 26, 2012 Rise Set
Actual Time 8:04 AM CST 4:37 PM CST
Civil Twilight 7:29 AM CST 5:12 PM CST
Nautical Twilight 6:50 AM CST 5:51 PM CST
Astronomical Twilight 6:13 AM CST 6:28 PM CST
Moon 3:33 PM CST (12/26) 6:27 AM CST (12/26)
Length of Visible Light 9h 43m
Length of Day
8h 32m
Waxing Gibbous, 97% of the Moon is Illuminated
Dec 26
Waxing Gibbous
Dec 28
Full
Jan 4
Last Quarter
Jan 11
New
Jan 18
First Quarter

Hourly Weather History & Observations

Time (CST) Temp. Windchill Dew Point Humidity Pressure Visibility Wind Dir Wind Speed Gust Speed Precip Events Conditions
12:53 AM -5.1 °F - -9.9 °F 80% 30.47 in 10.0 mi Calm Calm - N/A   Mostly Cloudy
1:53 AM -5.1 °F - -9.9 °F 80% 30.45 in 10.0 mi Calm Calm - N/A   Mostly Cloudy
2:53 AM -4.0 °F - -9.0 °F 79% 30.44 in 10.0 mi Calm Calm - N/A   Overcast
3:53 AM -2.9 °F - -9.0 °F 75% 30.43 in 10.0 mi Calm Calm - N/A   Overcast
4:53 AM -2.9 °F -11.2 °F -8.0 °F 79% 30.44 in 10.0 mi SE 3.5 mph - N/A   Overcast
5:53 AM -2.0 °F -10.1 °F -8.0 °F 76% 30.44 in 5.0 mi SE 3.5 mph - 0.00 in   Haze
6:53 AM -2.0 °F - -7.1 °F 79% 30.44 in 3.0 mi Calm Calm - 0.00 in Snow Light Snow
7:53 AM -2.0 °F - -7.1 °F 79% 30.43 in 8.0 mi Calm Calm - 0.00 in   Overcast
8:43 AM -2.2 °F - -5.8 °F 85% 30.28 in 9.0 mi Calm Calm - 0.00 in   Mostly Cloudy
8:53 AM -0.9 °F - -6.0 °F 79% 30.42 in 7.0 mi Calm Calm - 0.00 in   Overcast
9:53 AM -0.0 °F - -5.1 °F 79% 30.43 in 2.0 mi Calm Calm - 0.00 in Snow Light Snow
10:01 AM 1.4 °F - -5.8 °F 72% 30.29 in 1.5 mi Calm Calm - 0.00 in Snow Light Snow
10:09 AM 1.4 °F - -4.0 °F 78% 30.29 in 3.0 mi Calm Calm - 0.00 in Snow Light Snow
10:23 AM 1.4 °F - -5.8 °F 72% 30.28 in 7.0 mi Calm Calm - 0.00 in   Mostly Cloudy
10:53 AM 1.9 °F - -4.0 °F 76% 30.42 in 10.0 mi Calm Calm - 0.00 in   Mostly Cloudy
11:53 AM 3.9 °F - -2.9 °F 73% 30.39 in 10.0 mi Calm Calm - N/A   Clear
12:53 PM 5.0 °F -2.1 °F -0.9 °F 76% 30.37 in 10.0 mi SW 3.5 mph - N/A   Clear
1:53 PM 8.1 °F - 1.0 °F 73% 30.35 in 10.0 mi Calm Calm - N/A   Overcast
2:53 PM 10.0 °F 3.6 °F 3.0 °F 73% 30.35 in 10.0 mi SSE 3.5 mph - N/A   Overcast
3:53 PM 10.0 °F - 1.9 °F 70% 30.34 in 10.0 mi Calm Calm - N/A   Clear
4:53 PM 8.1 °F - 1.9 °F 76% 30.34 in 10.0 mi Calm Calm - N/A   Clear
5:53 PM 3.2 °F - -0.4 °F 85% 30.22 in 10.0 mi Calm Calm - N/A   Clear
6:53 PM 3.9 °F - -0.0 °F 84% 30.35 in 10.0 mi Calm Calm - N/A   Clear
7:53 PM -2.9 °F - -6.0 °F 87% 30.36 in 10.0 mi Calm Calm - N/A   Clear
8:53 PM -2.9 °F - -6.0 °F 87% 30.35 in 10.0 mi Calm Calm - N/A   Clear
9:53 PM -4.0 °F -12.4 °F -9.0 °F 79% 30.34 in 10.0 mi ENE 3.5 mph - N/A   Overcast
10:53 PM 1.0 °F -6.7 °F -4.0 °F 79% 30.33 in 10.0 mi ENE 3.5 mph - N/A   Overcast
11:53 PM -0.9 °F - -6.0 °F 79% 30.33 in 10.0 mi Calm Calm - N/A   Overcast